Hourly Weather Roundup
Issued by NWS Central Illinois

Home | Current Version | Previous Version | Text Only | Print | Product List | Glossary On
Versions: 1 2 3 4 5 6 7 8 9 10 11 12 13 14 15 16 17 18 19 20 21 22 23 24 25 26 27 28 29 30 31 32 33 34 35 36 37 38 39 40 41 42 43 44 45 46 47 48 49 50
000
NZUS43 KILX 270910
HWRILX

AREA WEATHER ROUNDUP
NATIONAL WEATHER SERVICE, LINCOLN IL
400 AM CDT WED MAY 27 2015


CITY           SKY/WX    TMP DP  RH WIND       PRES   REMARKS
BLOOMINGTON    PTCLDY    65  63  93 SW12      29.95R
CHAMPAIGN      PTCLDY    65  60  84 S13       29.97R
DANVILLE       CLEAR     65  61  87 SW12      29.95R
DECATUR        MOCLDY    67  61  81 SW14      29.97R
EFFINGHAM      PTCLDY    65  61  86 S7        30.02S
FLORA          CLEAR     65  62  89 SW7       30.03R
GALESBURG      CLEAR     61  59  92 SW7       29.92R
JACKSONVILLE   CLOUDY    69  63  82 SW8       29.95S
LACON          MOCLDY    65  61  88 SW6       29.91R
LAWRENCEVILLE  CLEAR     64  61  90 S5        30.04R
LITCHFIELD     MOCLDY    64  60  87 S9        29.98S
$$


CITY           SKY/WX    TMP DP  RH WIND       PRES   REMARKS
LINCOLN        MOCLDY    68  62  79 SW6       29.93R
MACOMB         MOCLDY    63  62  96 SW5       29.95R
MATTOON        CLEAR     66  62  87 SW12      29.99R
MT CARMEL AP   CLEAR     68  61  77 SW10      30.03R
OLNEY-NOBLE AP CLEAR     64  63  94 S3        30.03S
PARIS          CLEAR     67  63  87 SW16      30.01R
PEORIA         MOCLDY    68  63  84 SW9       29.92R
PONTIAC        PTCLDY    67  64  87 SW12G17   29.93R
RANTOUL        PTCLDY    67  62  83 SW10G16   29.96R
ROBINSON       CLEAR     66  62  87 SW10      30.03R
SPRINGFIELD    LGT RAIN  68  63  84 SW12      29.96R
TAYLORVILLE    FAIR      64  61  88 S12       29.97S
$$

...REGIONAL REPORTS...


CITY           SKY/WX    TMP DP  RH WIND       PRES   REMARKS
CHICAGO O`HARE PTCLDY    65  61  87 SW9       29.85R
KANKAKEE       CLEAR     64  61  88 SW13      29.92R
MOLINE         CLEAR     62  58  86 SW9       29.88R
MOUNT VERNON   CLEAR     64  59  82 S6        30.03S
PITTSFIELD     CLOUDY    65  62  89 SE5       29.97R THUNDER
QUINCY         CLOUDY    66  62  87 S7        29.95R
ROCKFORD       MOCLDY    64  60  87 SW12      29.86R
$$


CITY           SKY/WX    TMP DP  RH WIND       PRES   REMARKS
BURLINGTON     CLOUDY    63  61  93 SW6       29.91R
CEDAR RAPIDS   CLOUDY    61  61 100 W8        29.88R
DES MOINES     CLOUDY    60  56  86 W7        29.92R
KIRKSVILLE     MOCLDY    62  60  93 SW5       29.95R
OTTUMWA        PTCLDY    57  56  96 W5        29.90R
ST LOUIS       MOCLDY    71  61  70 SW13      29.99R
$$


CITY           SKY/WX    TMP DP  RH WIND       PRES   REMARKS
TERRE HAUTE    CLEAR     65  62  90 SW9       30.02R
EVANSVILLE     CLEAR     64  60  87 CALM      30.05R
INDIANAPOLIS   CLEAR     64  59  83 S9        30.00R
LAFAYETTE      CLEAR     65  60  84 SW7       29.96R
MADISON        LGT RAIN  61  57  87 VRB3      29.81R
MILWAUKEE      PTCLDY    63  59  87 SW6       29.80S
$$





USA.gov is the U.S. government's official web portal to all federal, state and local government web resources and services.